Fort Knox, KY

5:26 AM EST on December 16, 2019 (GMT -0500)
Godman Army Air Field

Weather History for KFTK - October, 2019

Change the Weather History Date:

Saturday, October 19, 2019

  Actual Average Record
Temperature  
Mean Temperature 56 °F -  
Max Temperature 73 °F 64 °F 87 °F (2005)
Min Temperature 39 °F 44 °F 32 °F (2015)
Degree Days  
Heating Degree Days 9    
Growing Degree Days 6 (Base 50)    
Moisture  
Dew Point 48 °F    
Average Humidity 68    
Maximum Humidity 99    
Minimum Humidity 43    
Precipitation  
Precipitation 0.00 in - - ()
Sea Level Pressure  
Sea Level Pressure 29.88 in    
Wind  
Wind Speed 4 mph (SSE)    
Max Wind Speed 13 mph    
Max Gust Speed 17 mph    
Visibility 10 miles    
Events      
Averages and records for this station are not official NWS values.
T = Trace of Precipitation, MM = Missing Value Source: NWS Daily Summary

Daily Weather History Graph

Daily Weather History Graph

Search for Another Location

Airport or City:

Astronomy

Oct. 19, 2019 Rise Set
Actual Time 7:56 AM EDT 7:01 PM EDT
Civil Twilight 7:29 AM EDT 7:27 PM EDT
Nautical Twilight 6:58 AM EDT 7:58 PM EDT
Astronomical Twilight 6:28 AM EDT 8:28 PM EDT
Moon 11:13 PM EDT (10/19) 1:23 PM EDT (10/19)
Length of Visible Light 11h 58m
Length of Day
11h 05m
Waning Gibbous, 70% of the Moon is Illuminated
Oct 19
Waning Gibbous
Oct 21
Last Quarter
Oct 27
New
Nov 4
First Quarter
Nov 12
Full

Hourly Weather History & Observations

Time (EDT) Temp. Windchill Dew Point Humidity Pressure Visibility Wind Dir Wind Speed Gust Speed Precip Events Conditions
12:56 AM 43.3 °F 41.7 °F 40.3 °F 89% 29.96 in 10.0 mi NE 3.5 mph - N/A   Clear
1:56 AM 42.4 °F - 40.6 °F 93% 29.96 in 10.0 mi Calm Calm - N/A   Clear
2:56 AM 43.3 °F 41.7 °F 40.1 °F 88% 29.95 in 10.0 mi ENE 3.5 mph - N/A   Clear
3:56 AM 42.4 °F - 39.2 °F 88% 29.95 in 10.0 mi Calm Calm - N/A   Clear
4:56 AM 41.0 °F - 39.9 °F 96% 29.95 in 10.0 mi Calm Calm - N/A   Clear
5:56 AM 40.6 °F 38.6 °F 40.1 °F 98% 29.95 in 10.0 mi ENE 3.5 mph - N/A   Clear
6:56 AM 39.0 °F - 38.8 °F 99% 29.96 in 10.0 mi Calm Calm - N/A   Clear
7:56 AM 39.0 °F - 38.8 °F 99% 29.97 in 10.0 mi Calm Calm - N/A   Clear
8:56 AM 44.1 °F 41.5 °F 41.5 °F 91% 29.97 in 10.0 mi East 4.6 mph - N/A   Clear
10:46 AM 55.4 °F - 44.6 °F 67% 29.95 in 10.0 mi ESE 5.8 mph - N/A   Clear
11:56 AM 62.6 °F - 46.2 °F 55% 29.94 in 10.0 mi ESE 5.8 mph - N/A   Clear
12:45 PM 68.0 °F - 44.6 °F 43% 29.92 in 10.0 mi ESE 8.1 mph - N/A   Clear
12:56 PM 68.5 °F - 45.7 °F 44% 29.92 in 10.0 mi SSE 9.2 mph - N/A   Clear
1:22 PM 69.8 °F - 48.2 °F 46% 29.90 in 10.0 mi SSE 8.1 mph - N/A   Clear
1:56 PM 71.2 °F - 48.2 °F 44% 29.89 in 10.0 mi South 12.7 mph 17.3 mph N/A   Clear
2:10 PM 71.6 °F - 48.2 °F 43% 29.87 in 10.0 mi SSE 6.9 mph - N/A   Clear
2:46 PM 71.6 °F - 48.2 °F 43% 29.85 in 10.0 mi SW 3.5 mph - N/A   Clear
2:56 PM 72.1 °F - 48.9 °F 44% 29.85 in 10.0 mi SSE 6.9 mph - N/A   Clear
3:21 PM 71.6 °F - 48.2 °F 43% 29.83 in 10.0 mi South 3.5 mph - N/A   Scattered Clouds
3:56 PM 73.0 °F - 49.3 °F 43% 29.82 in 10.0 mi SSE 9.2 mph - N/A   Mostly Cloudy
4:56 PM 71.6 °F - 49.6 °F 46% 29.82 in 10.0 mi SSE 8.1 mph - N/A   Mostly Cloudy
5:56 PM 69.6 °F - 51.3 °F 52% 29.81 in 10.0 mi South 4.6 mph - N/A   Mostly Cloudy
6:56 PM 67.1 °F - 51.8 °F 58% 29.81 in 10.0 mi SSE 4.6 mph - N/A   Overcast
7:56 PM 65.5 °F - 52.2 °F 62% 29.80 in 10.0 mi SSE 6.9 mph - N/A   Partly Cloudy
8:53 PM 64.4 °F - 51.8 °F 64% 29.82 in 10.0 mi South 4.6 mph - N/A   Overcast
8:56 PM 64.8 °F - 52.3 °F 64% 29.82 in 10.0 mi South 5.8 mph - N/A   Overcast
9:56 PM 64.2 °F - 54.1 °F 70% 29.83 in 10.0 mi South 8.1 mph - N/A   Overcast
10:26 PM 64.4 °F - 55.4 °F 73% 29.83 in 10.0 mi South 8.1 mph - N/A   Overcast
10:41 PM 64.4 °F - 57.2 °F 77% 29.83 in 10.0 mi South 11.5 mph - N/A   Overcast
10:56 PM 63.0 °F - 56.7 °F 80% 29.82 in 10.0 mi South 9.2 mph - N/A   Overcast
11:41 PM 62.6 °F - 57.2 °F 82% 29.83 in 10.0 mi South 10.4 mph - N/A   Overcast
11:56 PM 61.5 °F - 56.7 °F 84% 29.84 in 10.0 mi South 6.9 mph - N/A   Overcast